Precipitable_Water
1.76 1.76 1.69 1.70 1.71 1.69 1.83 1.90 1.97 1.96 1.88 1.76 1.54 1.44 1.57 1.65 1.58 1.44 1.33 1.26 1.29 1.28
1.69 1.67 1.52 1.48 1.50 1.51 1.56 1.61 1.62 1.53 1.27 0.91 0.75 0.75 0.80 0.89 0.99 1.05 1.04 1.03 1.11 1.16
1.45 1.34 1.15 1.01 0.95 0.92 0.85 0.81 0.72 0.65 0.65 0.67 0.69 0.71 0.71 0.70 0.74 0.75 0.83 0.91 0.93 0.99
1.16 0.96 0.84 0.75 0.70 0.71 0.70 0.69 0.69 0.70 0.72 0.75 0.78 0.81 0.78 0.78 0.77 0.75 0.75 0.79 0.78 0.77
0.87 0.79 0.76 0.74 0.70 0.68 0.64 0.70 0.70 0.73 0.75 0.80 0.81 0.82 0.80 0.77 0.78 0.74 0.72 0.73 0.73 0.71
0.88 0.76 0.73 0.72 0.70 0.69 0.68 0.72 0.75 0.78 0.79 0.79 0.79 0.78 0.78 0.75 0.74 0.72 0.72 0.74 0.75 0.77
0.99 0.80 0.70 0.70 0.70 0.68 0.71 0.74 0.79 0.82 0.84 0.83 0.80 0.76 0.74 0.71 0.73 0.76 0.81 0.84 0.87 0.88
0.99 0.88 0.70 0.66 0.65 0.68 0.74 0.78 0.83 0.84 0.85 0.84 0.79 0.76 0.74 0.78 0.79 0.80 0.82 0.88 0.95 0.98
1.04 0.93 0.77 0.63 0.61 0.67 0.70 0.72 0.78 0.81 0.81 0.75 0.79 0.83 0.80 0.80 0.75 0.75 0.77 0.81 0.91 0.96
1.07 0.97 0.83 0.71 0.62 0.64 0.69 0.74 0.77 0.81 0.81 0.77 0.82 0.85 0.81 0.77 0.72 0.67 0.70 0.80 0.85 0.86
1.09 1.00 0.87 0.76 0.68 0.66 0.70 0.69 0.72 0.78 0.81 0.81 0.85 0.86 0.81 0.73 0.65 0.60 0.62 0.74 0.84 0.83
1.16 1.02 0.88 0.78 0.70 0.67 0.70 0.65 0.66 0.75 0.77 0.79 0.82 0.83 0.77 0.71 0.60 0.52 0.50 0.66 0.76 0.79
1.18 1.01 0.88 0.80 0.72 0.72 0.68 0.66 0.71 0.71 0.75 0.76 0.78 0.79 0.74 0.66 0.56 0.44 0.44 0.59 0.65 0.70
1.14 0.97 0.91 0.82 0.76 0.73 0.66 0.68 0.66 0.64 0.71 0.76 0.78 0.74 0.65 0.55 0.45 0.40 0.43 0.52 0.57 0.67
Wind_Speed
6 7 8 8 8 9 9 7 9 9 10 12 13 13 13 13 14 14 15 14 15 15
6 7 8 8 8 8 8 10 11 11 12 12 12 12 12 12 13 13 14 15 15 15
7 8 8 8 8 8 8 9 10 10 10 11 11 12 12 13 14 14 15 16 16 17
8 9 9 9 8 9 9 10 10 10 11 11 11 11 12 12 14 14 16 17 18 19
8 9 9 9 9 10 10 11 11 11 11 10 11 12 13 14 15 16 16 17 17 17
9 10 10 10 11 11 11 11 11 11 11 12 13 14 15 15 16 16 16 16 16 17
10 11 11 11 12 12 12 11 12 12 12 14 15 15 15 15 15 15 16 16 16 17
11 11 12 12 12 12 12 13 14 14 15 15 15 15 14 15 15 15 16 16 16 16
11 12 13 13 12 12 13 13 14 14 15 15 14 14 14 15 15 16 17 17 16 16
12 13 14 14 14 14 14 15 15 16 16 14 14 15 15 16 17 17 17 17 17 17
14 15 15 15 16 16 15 16 16 16 15 15 16 16 17 18 18 18 18 18 17 18
17 17 18 18 17 17 17 17 16 16 16 16 17 17 18 18 18 18 18 17 17 18
18 19 19 19 18 17 17 17 16 16 17 17 17 16 16 17 17 17 17 16 17 18
21 21 20 20 19 18 17 16 16 16 16 16 15 15 16 17 17 18 18 17 18 18
Wind_Direction
270 283 291 290 275 271 268 253 248 264 269 274 278 276 275 274 275 277 279 280 279 280
282 290 295 289 280 271 268 264 267 270 273 276 277 277 278 278 278 279 280 281 281 280
291 296 298 292 282 274 273 273 273 275 277 279 280 281 281 281 282 282 281 281 281 281
296 296 292 289 284 277 275 275 277 278 279 281 284 285 286 286 286 286 286 285 284 283
301 297 292 289 286 282 279 277 278 279 281 282 286 288 289 290 290 290 290 289 288 287
308 304 295 290 287 283 280 278 278 280 279 284 289 291 291 292 292 291 291 291 290 290
309 309 300 292 287 283 278 276 277 281 283 286 291 293 294 293 293 293 293 293 293 292
308 312 306 297 289 282 278 278 279 280 284 288 290 293 295 296 295 295 295 295 294 294
304 308 307 303 294 287 282 281 281 283 285 288 287 292 296 299 299 298 297 295 294 295
302 307 306 302 295 288 285 285 285 287 286 283 286 290 295 300 299 299 297 296 294 295
294 301 304 303 297 290 287 288 285 285 287 285 287 291 295 299 299 299 297 295 294 295
289 295 298 299 296 289 286 289 285 284 285 286 288 291 296 299 300 301 299 296 295 297
286 291 294 296 293 288 287 288 286 285 285 286 289 291 297 301 303 304 303 300 299 301
283 286 289 292 289 284 285 285 287 291 290 286 287 291 296 302 303 304 303 302 302 302